Location: Bothwell
(42.3833°S, 147.0000°E)
Time: 02:59:59
(UTC+10:00)

CUBESAT XI-V - Pass Details

Date: 03 October 2022
Orbit: 661 x 686 km, 98.2° (Epoch: 19 September)

Event Time Altitude Azimuth Distance (km) Brightness Sun altitude
Rises 03:52:25 0° 168° (SSE) 3,112 ? -29.8°
Reaches altitude 10° 03:54:42 10° 169° (SSE) 2,191 ? -29.5°
Enters shadow 03:58:14 50° 175° (S) 909 ? -28.9°
